Location: 22
(39.7117°N, 89.5929°W)
Time: 06:04:59
(UTC-05:00)

A-11 Canister half - Pass Details

Date: 03 February 2023
Orbit: 1526 x 1682 km, 47.3° (Epoch: 01 April)

Event Time Altitude Azimuth Distance (km) Brightness Sun altitude
Exits shadow 04:45:33 16° 209° (SSW) 3,252 10.4 -27.0°
Maximum altitude 04:53:01 54° 138° (SE) 1,805 9.5 -25.6°
Drops below altitude 10° 05:01:59 10° 65° (ENE) 3,718 11.9 -23.8°
Sets 05:05:08 0° 61° (ENE) 4,717 12.5 -23.2°
